Weather History for Aberdeen, SD

Change the Weather History Date:

Friday, November 2, 2012

  Actual Average Record
Temperature  
Mean Temperature 33 °F 37 °F  
Max Temperature 39 °F 48 °F 77 °F (1931)
Min Temperature 26 °F 26 °F 0 °F (1911)
Degree Days  
Heating Degree Days 32 28  
Month to date heating degree days 62 56  
Since 1 July heating degree days 944 947  
Cooling Degree Days 0 0  
Month to date cooling degree days 0 0  
Year to date cooling degree days 764 525  
Moisture  
Dew Point 24 °F    
Average Humidity 68    
Maximum Humidity 81    
Minimum Humidity 54    
Precipitation  
Precipitation 0.00 in 0.03 in 1.30 in (1896)
Month to date precipitation 0.00 0.06  
Year to date precipitation 13.51 20.53  
Snow  
Snow 0.00 in - - ()
Month to date snowfall 0.0  
Since 1 July snowfall T  
Snow Depth 0.00 in    
Sea Level Pressure  
Sea Level Pressure 30.12 in    
Wind  
Wind Speed 7 mph (East)    
Max Wind Speed 14 mph    
Max Gust Speed 17 mph    
Visibility 10 miles    
Events      
T = Trace of Precipitation, MM = Missing Value Source: NWS Daily Summary

Daily Weather History Graph

Daily Weather History Graph

Search for Another Location

Airport:

Trip Planner

Search our weather history database for the weather conditions in past years. The results will help you decide how hot, cold, wet, or windy it might be!

Date:

Astronomy

Nov. 02, 2012 Rise Set
Actual Time 8:15 AM CDT 6:18 PM CDT
Civil Twilight 7:44 AM CDT 6:49 PM CDT
Nautical Twilight 7:09 AM CDT 7:24 PM CDT
Astronomical Twilight 6:34 AM CDT 7:59 PM CDT
Moon 9:01 PM CDT (11/2) 11:42 AM CDT (11/2)
Length of Visible Light 11h 05m
Length of Day
10h 03m
Waning Gibbous, 87% of the Moon is Illuminated
Nov 2
Waning Gibbous
Nov 6
Last Quarter
Nov 13
New
Nov 20
First Quarter
Nov 28
Full

Hourly Weather History & Observations

Time (CDT) Temp. Windchill Dew Point Humidity Pressure Visibility Wind Dir Wind Speed Gust Speed Precip Events Conditions
12:53 AM 26.1 °F 15.6 °F 21.0 °F 81% 30.08 in 10.0 mi ENE 11.5 mph - N/A   Clear
1:53 AM 27.0 °F 18.0 °F 21.0 °F 78% 30.09 in 10.0 mi NE 9.2 mph - N/A   Clear
2:53 AM 27.0 °F 18.0 °F 21.0 °F 78% 30.06 in 10.0 mi NE 9.2 mph - N/A   Clear
3:53 AM 27.0 °F 18.7 °F 21.9 °F 81% 30.08 in 10.0 mi NNE 8.1 mph - N/A   Clear
4:53 AM 28.0 °F 20.8 °F 23.0 °F 81% 30.07 in 10.0 mi NE 6.9 mph - N/A   Clear
5:53 AM 28.9 °F 21.1 °F 23.0 °F 78% 30.08 in 10.0 mi ENE 8.1 mph - N/A   Mostly Cloudy
6:53 AM 30.0 °F 22.4 °F 24.1 °F 79% 30.11 in 10.0 mi NNE 8.1 mph - N/A   Overcast
7:53 AM 30.9 °F 24.3 °F 24.1 °F 76% 30.13 in 10.0 mi NNE 6.9 mph - N/A   Overcast
8:53 AM 30.9 °F 22.8 °F 23.0 °F 72% 30.13 in 10.0 mi ENE 9.2 mph - N/A   Overcast
9:53 AM 32.0 °F 23.6 °F 23.0 °F 69% 30.14 in 10.0 mi East 10.4 mph - N/A   Overcast
10:53 AM 33.1 °F 25.5 °F 24.1 °F 70% 30.15 in 10.0 mi East 9.2 mph - N/A   Overcast
11:53 AM 34.0 °F 26.0 °F 24.1 °F 67% 30.15 in 10.0 mi East 10.4 mph - N/A   Overcast
12:53 PM 36.0 °F 28.5 °F 24.1 °F 62% 30.12 in 10.0 mi East 10.4 mph - N/A   Mostly Cloudy
1:53 PM 37.0 °F 32.4 °F 25.0 °F 62% 30.13 in 10.0 mi ESE 5.8 mph - N/A   Overcast
2:53 PM 37.9 °F 33.5 °F 25.0 °F 60% 30.12 in 10.0 mi East 5.8 mph - N/A   Overcast
3:53 PM 39.0 °F 33.4 °F 25.0 °F 57% 30.10 in 10.0 mi East 8.1 mph - N/A   Overcast
4:53 PM 37.9 °F 34.4 °F 25.0 °F 60% 30.11 in 10.0 mi East 4.6 mph - N/A   Overcast
5:53 PM 37.9 °F 35.5 °F 26.1 °F 62% 30.12 in 10.0 mi ESE 3.5 mph - N/A   Overcast
6:53 PM 37.9 °F 35.5 °F 26.1 °F 62% 30.13 in 10.0 mi East 3.5 mph - N/A   Overcast
7:53 PM 37.0 °F 34.5 °F 27.0 °F 67% 30.15 in 10.0 mi SE 3.5 mph - N/A   Overcast
8:53 PM 37.0 °F 33.3 °F 27.0 °F 67% 30.14 in 10.0 mi SE 4.6 mph - N/A   Overcast
9:53 PM 37.0 °F 33.3 °F 27.0 °F 67% 30.15 in 10.0 mi SSE 4.6 mph - N/A   Overcast
10:53 PM 37.0 °F 30.4 °F 27.0 °F 67% 30.15 in 10.0 mi SE 9.2 mph - N/A   Overcast
11:53 PM 35.1 °F 31.0 °F 28.0 °F 76% 30.16 in 10.0 mi SSE 4.6 mph - N/A   Overcast